metlocid,date_time,avg_wspd,std_wspd,min_wspd,max_wspd,n_wspd,n_comments
VIAM,11/24/95,3.543888925,1.17023951,0.33,5.38,18,0
VIAM,11/25/95,2.60354166,2.186986144,0,6.97,48,1
VIAM,11/26/95,5.760625,2.670595898,1.94,12.62,48,0
VIAM,11/27/95,2.360208346,1.766658711,0.35,7.15,48,0
VIAM,11/28/95,4.810416666,2.719044724,0.78,9.58,48,0
VIAM,11/29/95,3.771875029,2.827052217,0.34,8.77,48,0
VIAM,11/30/95,6.078958273,2.533861058,2.15,9.53,48,0
VIAM,12/1/95,4.658333331,2.290302717,1.04,7.53,48,0
VIAM,12/2/95,3.692291667,2.289571376,0.2,8.03,48,0
VIAM,12/3/95,3.884999987,2.5324893,0.32,7.89,48,0
VIAM,12/4/95,4.829999981,2.091093547,1.35,8.26,48,0
VIAM,12/5/95,4.462291665,2.77272217,0.27,8.17,48,0
VIAM,12/6/95,3.791875006,1.727105145,0.89,7.18,48,0
VIAM,12/7/95,2.834999979,1.521000477,0.6,6.74,48,0
VIAM,12/8/95,4.382916645,2.625868806,0.49,9.13,48,0
VIAM,12/9/95,5.141458336,2.943879327,0.1,9,48,0
VIAM,12/10/95,2.571875003,1.556740546,0.28,7.59,48,0
VIAM,12/11/95,4.045416687,1.90316529,0.94,7.45,48,0
VIAM,12/12/95,5.426666636,2.841433785,0.92,9.91,48,0
VIAM,12/13/95,4.675208345,2.132002331,1.09,8.2,48,0
VIAM,12/14/95,3.697708324,1.542934805,0.01,6.57,48,0
VIAM,12/15/95,3.982499971,1.992971134,0.81,7.17,48,0
VIAM,12/16/95,6.841458348,3.117825904,0.21,11.01,48,0
VIAM,12/17/95,6.809791587,2.879072282,1,10.69,48,0
VIAM,12/18/95,5.808541699,2.561316988,0.96,9.46,48,0
VIAM,12/19/95,5.11624997,2.337711736,0.7,7.95,48,0
VIAM,12/20/95,6.118125002,1.195293347,3.76,8.5,48,0
VIAM,12/21/95,3.006458347,1.038016707,1.3,6.35,48,0
VIAM,12/22/95,3.830208314,1.526766147,1.11,6.83,48,0
VIAM,12/23/95,3.267916669,1.537699262,0.69,7.01,48,0
VIAM,12/24/95,4.666041709,1.683027595,0.97,7.88,48,0
VIAM,12/25/95,6.298750003,1.719690259,3.25,8.98,48,0
VIAM,12/26/95,3.408750011,1.091588034,0.79,6.19,48,0
VIAM,12/27/95,4.328125015,2.445036374,0.45,8.1,48,0
VIAM,12/28/95,5.61854171,1.667256646,1.86,9.1,48,0
VIAM,12/29/95,5.074791669,2.371055942,0.46,9.15,48,0
VIAM,12/30/95,3.858958369,1.760134493,0.97,7.36,48,0
VIAM,12/31/95,4.060833334,2.100677539,0.58,7.24,48,0
VIAM,1/1/96,4.827916653,2.433503686,0.79,7.48,48,0
VIAM,1/2/96,7.416041692,1.750423329,4.07,10.04,48,0
VIAM,1/3/96,5.679791674,1.694550059,2.13,7.72,48,0
VIAM,1/4/96,4.262916641,1.548077674,0.71,6.16,48,0
VIAM,1/5/96,5.35499999,3.236998201,0.12,9.45,48,0
VIAM,1/6/96,4.940833367,1.753618568,1.92,8.47,48,0
VIAM,1/7/96,3.604166672,1.242964604,0.98,5.1,48,0
VIAM,1/8/96,4.896041649,1.641532384,1.16,7.72,48,0
VIAM,1/9/96,4.281250043,2.339627762,0.09,9.33,48,0
VIAM,1/10/96,2.873541648,1.977485463,0.26,6.98,48,0
VIAM,1/11/96,4.418750023,2.719079674,0.65,8.89,48,0
VIAM,1/12/96,8.35041675,1.708621441,5.07,10.49,48,0
VIAM,1/13/96,6.271041671,1.018150685,4.52,8.63,48,0
VIAM,1/14/96,5.288958343,1.546110088,1.68,7.14,48,0
VIAM,1/15/96,5.561875011,2.152605205,1.57,8.2,48,0
VIAM,1/16/96,5.195416691,2.242388538,0.98,7.89,48,0
VIAM,1/17/96,3.898958345,2.014673027,0.37,6.57,48,0
VIAM,1/18/96,4.886458336,2.847506156,0.89,9.07,48,0
VIAM,1/19/96,4.024375007,1.594008617,0.99,7.08,48,0
VIAM,1/20/96,4.945416672,3.07760269,0.95,10.22,48,0
VIAM,1/21/96,2.565624998,1.551347948,0.45,7.21,48,0
VIAM,1/22/96,5.267708341,2.102987966,0.79,8.89,48,0
VIAM,1/23/96,4.41083331,2.457650477,0.8,8.78,48,0
VIAM,1/24/96,3.754166686,1.580460276,0.8,6.5,48,0
VIAM,1/25/96,2.635416675,1.366855327,0.5,5,48,0
VIAM,1/26/96,4.772916685,1.935419015,2.2,8.8,48,0
VIAM,1/27/96,5.124999993,2.10414988,1.6,10.4,48,0
VIAM,1/28/96,6.831250037,2.479804109,1.7,11.1,48,0
VIAM,1/29/96,7.466666669,2.907681186,2.3,12.9,48,0
VIAM,1/30/96,6.314583401,2.445489967,1.4,10.8,48,0
VIAM,1/31/96,4.310416674,1.630851451,1.8,9.1,48,0
VIAM,2/1/96,4.174999985,1.792953108,0.4,7.3,48,0
VIAM,2/2/96,4.50624999,3.119765825,0.5,9.6,48,0
VIAM,2/3/96,4.920833347,3.428600516,0,10.4,48,0
VIAM,2/4/96,2.933333351,2.12215602,0.1,7.6,48,0
VIAM,2/5/96,3.225000009,1.883579679,0.5,7.1,48,0
VIAM,2/6/96,3.602083365,2.445968453,0.4,7.5,48,0
VIAM,2/7/96,3.625000007,2.045285202,1.1,7.4,48,0
VIAM,2/8/96,3.935416662,2.649728164,0.4,9.3,48,0
VIAM,2/9/96,2.195833327,2.066547965,0,6.5,48,0
VIAM,2/10/96,4.350000006,2.078051496,1.6,8.4,48,0
VIAM,2/11/96,5.314583349,2.367509679,1.1,8.6,48,0
VIAM,2/12/96,3.516666667,2.994415608,0.2,8.7,48,0
VIAM,2/13/96,4.895833341,3.613447626,0.3,10.3,48,0
VIAM,2/14/96,2.368750003,1.875503471,0,7.4,48,0
VIAM,2/15/96,2.647916655,1.13155692,0.6,6.1,48,0
VIAM,2/16/96,3.216666681,2.946569133,0.2,8.8,48,0
VIAM,2/17/96,3.185416671,2.626298254,0.1,8.1,48,0
VIAM,2/18/96,3.322916673,2.86632983,0.4,8.2,48,0
VIAM,2/19/96,3.779166652,3.27569762,0.2,9.5,48,0
VIAM,2/20/96,1.741666666,0.843456241,0.3,3.4,48,0
VIAM,2/21/96,1.670833335,1.043308622,0.3,4.6,48,0
VIAM,2/22/96,2.856249993,2.692693484,0.2,8.4,48,0
VIAM,2/23/96,2.583333283,3.010501629,0.1,8.7,48,0
VIAM,2/24/96,3.88958333,3.115454906,0.1,9.7,48,0
VIAM,2/25/96,2.437499982,1.296250727,0.4,5.4,48,0
VIAM,2/26/96,1.204166666,0.747181464,0.2,3.5,48,0
VIAM,2/27/96,1.252083331,0.764084641,0.2,3,48,0
VIAM,2/28/96,0.829166664,0.380346045,0.1,1.5,48,0
VIAM,2/29/96,0.820833335,0.405787037,0.2,1.9,48,0
VIAM,3/1/96,0.800000009,0.397331524,0.1,1.8,48,0
VIAM,3/2/96,0.683333346,0.574024009,0,2.4,48,0
VIAM,3/3/96,0.725000005,0.344871236,0.1,1.6,48,0
VIAM,3/4/96,1.041666667,0.482825597,0.3,2.2,48,0
VIAM,3/5/96,0.652083332,0.377556292,0.1,1.4,48,0
VIAM,3/6/96,0.602083343,0.399195785,0,1.7,48,0
VIAM,3/7/96,0.922916673,0.520327054,0.2,2.6,48,0
VIAM,3/8/96,0.87916667,0.350657943,0.2,1.7,48,0
VIAM,3/9/96,1.258333335,0.864878139,0.5,5.9,48,0
VIAM,3/10/96,2.297916658,1.603916683,0.1,6.1,48,0
VIAM,3/11/96,0.920833329,0.405262358,0.2,1.8,48,0
VIAM,3/12/96,0.568750004,0.363877609,0,1.4,48,0
VIAM,3/13/96,0.858333339,0.548046174,0.2,2.8,48,0
VIAM,3/14/96,1.097916669,0.59626125,0.2,2.4,48,0
VIAM,3/15/96,0.966666671,0.477285468,0.2,2.2,48,0
VIAM,3/16/96,4.416666704,4.886774855,0.6,16.7,48,0
VIAM,3/17/96,9.547916671,2.907216953,2.5,15.5,48,0
VIAM,3/18/96,5.570833335,2.68097775,0.6,12,48,0
VIAM,3/19/96,7.070833358,4.549676571,1.1,16.4,48,0
VIAM,3/20/96,3.508333307,1.966943074,0.7,8.9,48,0
VIAM,3/21/96,1.056250007,0.448119589,0.4,2.1,48,0
VIAM,3/22/96,1.116666677,0.458644329,0.5,2.4,48,0
VIAM,3/23/96,1.293749996,0.827558892,0.2,3.8,48,0
VIAM,3/24/96,1.622916669,1.511268235,0.5,8.4,48,0
VIAM,3/25/96,4.89791666,2.545625317,0.3,10.4,48,0
VIAM,3/26/96,0.966666669,0.453981595,0.3,2,48,0
VIAM,3/27/96,0.722916676,0.445420954,0,1.7,48,0
VIAM,3/28/96,0.714583336,0.382594486,0,1.5,48,0
VIAM,3/29/96,0.720833338,0.35126418,0.1,1.5,48,0
VIAM,3/30/96,2.933333331,2.278328366,0.2,8.3,48,0
VIAM,3/31/96,1.089583344,0.516221786,0.1,2.4,48,0
VIAM,4/1/96,1.297916656,0.543624378,0.2,2.6,48,0
VIAM,4/2/96,1.81875001,0.898143783,0.7,5,48,0
VIAM,4/3/96,1.633333333,0.549790417,0.8,2.9,48,0
VIAM,4/4/96,1.585416672,0.463561411,0.6,2.4,48,0
VIAM,4/5/96,0.987500008,0.431042773,0.2,2.5,48,0
VIAM,4/6/96,0.616666675,0.33474877,0.2,1.3,48,0
VIAM,4/7/96,1.054166669,0.519802879,0.1,2.5,48,0
VIAM,4/8/96,0.741666667,0.464406882,0.1,2.3,48,0
VIAM,4/9/96,4.129166658,2.490745304,1.1,9.2,48,0
VIAM,4/10/96,1.166666672,0.408074521,0.4,2.1,48,0
VIAM,4/11/96,0.974999996,0.39920132,0.2,1.8,48,0
VIAM,4/12/96,4.283333316,2.305159176,1.1,8.9,48,0
VIAM,4/13/96,5.01041669,1.953963741,0.8,9.7,48,0
VIAM,4/14/96,1.114583336,0.37755629,0.2,2.1,48,0
VIAM,4/15/96,6.487499967,2.262048108,2.6,10.7,48,0
VIAM,4/16/96,1.53541666,0.866268464,0.5,5.2,48,0
VIAM,4/17/96,1.377083339,0.538018259,0.6,2.7,48,0
VIAM,4/18/96,1.470833328,0.788469655,0.3,4.4,48,0
VIAM,4/19/96,1.127083342,1.54061879,0.3,8.3,48,0
VIAM,4/20/96,7.181249981,2.532567147,2.8,12,48,0
VIAM,4/21/96,3.485416658,1.627553913,0.9,7.6,48,0
VIAM,4/22/96,1.220833334,0.708597162,0.2,3.2,48,0
VIAM,4/23/96,0.814583339,0.476686068,0,2,48,0
VIAM,4/24/96,0.687500006,0.36764055,0.1,1.5,48,0
VIAM,4/25/96,0.581250002,0.317340171,0,1.5,48,0
VIAM,4/26/96,0.745833334,0.336413073,0.2,1.5,48,0
VIAM,4/27/96,0.733333333,0.378874777,0,1.7,48,0
VIAM,4/28/96,0.639583336,0.348699454,0.1,1.6,48,0
VIAM,4/29/96,1.175000003,0.51011054,0.3,2.8,48,0
VIAM,4/30/96,1.177083343,0.517045457,0.4,2.4,48,0
VIAM,5/1/96,0.866666678,0.469646025,0,2.4,48,0
VIAM,5/2/96,0.737500001,0.27877009,0.1,1.4,48,0
VIAM,5/3/96,0.833333332,0.315104389,0.2,1.5,48,0
VIAM,5/4/96,0.695833341,0.32548382,0.2,1.3,48,0
VIAM,5/5/96,0.76666667,0.291972989,0.1,1.3,48,0
VIAM,5/6/96,0.822916671,0.306135543,0.1,1.5,48,0
VIAM,5/7/96,0.62708334,0.343783447,0,1.3,48,0
VIAM,5/8/96,0.43125,0.337800292,0,1.4,48,3
VIAM,5/9/96,0.535416667,0.350373404,0,1.6,48,0
VIAM,5/10/96,1.116666667,0.536867715,0.3,2.8,48,0
VIAM,5/11/96,0.925,0.487939649,0.3,2,48,0
VIAM,5/12/96,0.822916674,0.382177182,0,1.7,48,0
VIAM,5/13/96,0.874999999,0.346717121,0.3,1.8,48,0
VIAM,5/14/96,0.916666665,0.343531917,0.1,1.8,48,0
VIAM,5/15/96,0.983333336,0.402826884,0.2,2,48,0
VIAM,5/16/96,1.029166664,0.40840026,0.3,2.1,48,0
VIAM,5/17/96,0.477083339,0.283773646,0,1.1,48,0
VIAM,5/18/96,0.633333336,0.369780454,0.1,1.3,48,0
VIAM,5/19/96,0.777083338,0.437711447,0,1.8,48,0
VIAM,5/20/96,0.679166672,0.399977837,0,1.6,48,0
VIAM,5/21/96,0.881249997,0.478764468,0,1.9,48,0
VIAM,5/22/96,0.785416671,0.423254653,0,1.6,48,0
VIAM,5/23/96,0.668750002,0.42883129,0,1.6,48,1
VIAM,5/24/96,0.837500001,0.407182841,0.2,1.9,48,0
VIAM,5/25/96,0.531250005,0.394189847,0,1.8,48,0
VIAM,5/26/96,0.385416672,0.330692107,0,1.4,48,1
VIAM,5/27/96,0.333333338,0.334748768,0,1.4,48,3
VIAM,5/28/96,0.883333335,0.479509201,0,2.1,48,0
VIAM,5/29/96,1.116666663,0.434341426,0.3,2.3,48,0
VIAM,5/30/96,1.131250006,0.467294735,0.3,2.4,48,0
VIAM,5/31/96,0.808333344,0.53746186,0,2,48,0
VIAM,6/1/96,0.620833338,0.364929799,0,1.5,48,0
VIAM,6/2/96,1.085416668,0.52954801,0.1,2.2,48,0
VIAM,6/3/96,1.88333334,0.513367412,1,3.1,48,0
VIAM,6/4/96,1.218749993,0.412391176,0.5,2.2,48,0
VIAM,6/5/96,1.589583334,0.629501515,0.2,2.8,48,0
VIAM,6/6/96,0.810416669,0.562759001,0,1.8,48,1
VIAM,6/7/96,1.449999996,0.503181358,0.4,2.8,48,0
VIAM,6/8/96,0.960416676,0.459759236,0.1,2.4,48,0
VIAM,6/9/96,1.056249997,0.408893806,0.1,2,48,0
VIAM,6/10/96,0.866666671,0.44114615,0.1,1.8,48,0
VIAM,6/11/96,1.077083327,0.414235809,0.5,2.1,48,0
VIAM,6/12/96,0.764583338,0.420986476,0.1,1.7,48,0
VIAM,6/13/96,0.877083341,0.431839011,0.2,1.8,48,0
VIAM,6/14/96,1.339583339,0.694274331,0.3,3.2,48,0
VIAM,6/15/96,1.058333335,0.437999971,0.2,2.4,48,0
VIAM,6/16/96,1.47916667,0.573143001,0.3,3,48,0
VIAM,6/17/96,0.950000005,0.463566191,0.3,2.3,48,0
VIAM,6/18/96,0.835416671,0.355796728,0.2,1.6,48,0
VIAM,6/19/96,0.760416671,0.525413549,0,2.2,48,0
VIAM,6/20/96,0.943750004,0.396208757,0.1,1.6,48,0
VIAM,6/21/96,0.889583339,0.467787723,0,1.8,48,0
VIAM,6/22/96,0.81458334,0.460337336,0,1.9,48,0
VIAM,6/23/96,0.964583335,0.436372661,0.1,2.4,48,0
VIAM,6/24/96,0.679166669,0.302442771,0,1.4,48,0
VIAM,6/25/96,0.408333338,0.245671753,0,1.2,48,0
VIAM,6/26/96,1.404166666,0.817093533,0.1,3.5,48,0
VIAM,6/27/96,2.877083341,2.850549781,0.4,10.3,48,0
VIAM,6/28/96,3.558333307,2.971269007,0.3,9.7,48,0
VIAM,6/29/96,2.177083317,0.898992221,0.8,5.2,48,0
VIAM,6/30/96,1.656249989,0.432167336,0.7,2.5,48,0
VIAM,7/1/96,1.154166662,0.464005832,0.4,2.6,48,0
VIAM,7/2/96,0.931250012,0.354998503,0.2,1.9,48,0
VIAM,7/3/96,1.32708333,0.435518556,0.4,2.5,48,0
VIAM,7/4/96,1.839583334,0.535838811,0.8,3.3,48,0
VIAM,7/5/96,4.520833328,4.852503515,1,18.4,48,0
VIAM,7/6/96,1.422916666,0.788005721,0.3,3.9,48,0
VIAM,7/7/96,0.75625,0.465812596,0,2.1,48,0
VIAM,7/8/96,1.72916667,0.666511511,0.4,2.9,48,0
VIAM,7/9/96,1.320833331,0.576105163,0.3,2.7,48,0
VIAM,7/10/96,1.264583341,0.43783295,0.4,2.5,48,0
VIAM,7/11/96,1.339583331,0.470282653,0.6,2.8,48,0
VIAM,7/12/96,1.822916654,0.476797636,1.1,2.9,48,0
VIAM,7/13/96,1.256249997,0.502295254,0.4,2.6,48,0
VIAM,7/14/96,1.256250002,0.56977273,0.4,3,48,0
VIAM,7/15/96,1.143750001,0.344504733,0.5,2,48,0
VIAM,7/16/96,1.016666669,0.463719154,0.2,2.1,48,0
VIAM,7/17/96,0.683333332,0.281586178,0.1,1.4,48,0
VIAM,7/18/96,0.662500005,0.360628881,0.1,1.4,48,0
VIAM,7/19/96,0.754166671,0.4341577,0,1.7,48,0
VIAM,7/20/96,0.966666661,0.383341037,0.3,2,48,0
VIAM,7/21/96,1.564583328,0.577776211,0.4,2.8,48,0
VIAM,7/22/96,1.108333343,0.340733471,0.5,1.7,48,0
VIAM,7/23/96,1.441666664,0.583399188,0.2,2.7,48,0
VIAM,7/24/96,1.356250002,0.581599501,0.2,3,48,0
VIAM,7/25/96,1.083333336,0.481722675,0.2,2.3,48,0
VIAM,7/26/96,0.66875,0.49942785,0.1,2.6,48,0
VIAM,7/27/96,0.772916666,0.312668385,0.3,1.8,48,0
VIAM,7/28/96,0.712500003,0.336202187,0.1,1.4,48,0
VIAM,7/29/96,1.737499997,1.553530599,0.4,9.9,48,0
VIAM,7/30/96,3.110416656,2.710989424,0.9,15.1,48,0
VIAM,7/31/96,1.912499997,1.335859739,0.5,6.7,48,0
VIAM,8/1/96,2.958333312,2.042300846,0.8,9,48,0
VIAM,8/2/96,5.235416745,3.318452036,1.5,12,48,0
VIAM,8/3/96,2.856250004,2.811822059,0.4,11.6,48,0
VIAM,8/4/96,1.008333334,0.52988691,0.1,2,48,0
VIAM,8/5/96,0.864583328,0.61210815,0.2,4.2,48,0
VIAM,8/6/96,3.522916661,1.849926907,0.8,7.4,48,0
VIAM,8/7/96,1.220833343,0.459397539,0.3,2.2,48,0
VIAM,8/8/96,0.733333337,0.352699819,0.1,1.6,48,0
VIAM,8/9/96,0.922916668,0.393694759,0.3,1.7,48,0
VIAM,8/10/96,0.977083335,0.470960804,0.2,2.2,48,0
VIAM,8/11/96,0.775000004,0.448875662,0,1.8,48,0
VIAM,8/12/96,0.618750004,0.373400843,0,1.6,48,1
VIAM,8/13/96,0.752083337,0.311475269,0.2,1.4,48,0
VIAM,8/14/96,1.022916673,0.33659091,0.2,1.9,48,0
VIAM,8/15/96,0.700000004,0.379809583,0.1,1.6,48,0
VIAM,8/16/96,0.777083338,0.472764432,0,2,48,0
VIAM,8/17/96,1.00833334,0.434096436,0.1,2,48,0
VIAM,8/18/96,1.295833329,0.487703408,0.4,2.7,48,0
VIAM,8/19/96,0.754166674,0.494203996,0,1.9,48,2
VIAM,8/20/96,0.718750002,0.35409834,0.1,1.6,48,0
VIAM,8/21/96,0.866666668,0.459571182,0.1,1.9,48,0
VIAM,8/22/96,1.210416654,0.533251583,0.3,2.3,48,0
VIAM,8/23/96,1.816666668,0.553262413,0.7,2.9,48,0
VIAM,8/24/96,5.539583375,2.910051552,1.2,10,48,0
VIAM,8/25/96,7.966666684,2.623975679,3.2,13.9,48,0
VIAM,8/26/96,7.056250066,2.711120271,2.1,12.1,48,0
VIAM,8/27/96,2.633333332,2.597816858,0.7,12.6,48,0
VIAM,8/28/96,1.187500003,0.476076597,0.3,2.6,48,0
VIAM,8/29/96,1.78333333,0.704796134,0.7,4.4,48,0
VIAM,8/30/96,1.381249999,0.597390158,0.5,3,48,0
VIAM,8/31/96,1.597916658,0.472876912,0.7,2.6,48,0
VIAM,9/1/96,1.397916665,0.376710047,0.6,2.2,48,0
VIAM,9/2/96,0.995833339,0.478454219,0.2,2,48,0
VIAM,9/3/96,0.616666671,0.38885174,0,1.5,48,0
VIAM,9/4/96,0.552083336,0.392476901,0.1,1.6,48,0
VIAM,9/5/96,0.670833335,0.359052136,0.1,1.5,48,0
VIAM,9/6/96,0.870833335,0.418181638,0.1,1.8,48,0
VIAM,9/7/96,0.514583336,0.318900754,0,1.3,48,0
VIAM,9/8/96,0.693749999,0.386697002,0.1,1.9,48,0
VIAM,9/9/96,0.641666668,0.358978053,0.1,1.4,48,0
VIAM,9/10/96,0.985416672,0.44242542,0.2,2,48,0
VIAM,9/11/96,1.21458333,0.405278763,0.2,2.1,48,0
VIAM,9/12/96,1.262499994,0.392279199,0.4,2.1,48,0
VIAM,9/13/96,0.725000002,0.320571293,0.1,1.4,48,0
VIAM,9/14/96,0.754166671,0.359644226,0.1,2,48,0
VIAM,9/15/96,0.770833336,0.532740143,0,2.9,48,0
VIAM,9/16/96,0.98333333,0.430404725,0.1,2.2,48,0
VIAM,9/17/96,1.116666663,0.559381612,0.3,2.3,48,0
VIAM,9/18/96,1.129166668,0.569792172,0.3,3.2,48,0
VIAM,9/19/96,1.589583322,0.566151455,0.4,2.9,48,0
VIAM,9/20/96,3.639583322,2.213761571,1.2,10.2,48,0
VIAM,9/21/96,1.387500004,0.874612385,0.4,4.8,48,0
VIAM,9/22/96,0.829166669,0.398912525,0.2,2,48,0
VIAM,9/23/96,1.029166669,0.50062018,0.2,2,48,0
VIAM,9/24/96,0.885416664,0.45288182,0.1,1.9,48,0
VIAM,9/25/96,0.881250005,0.472501821,0.2,1.9,48,0
VIAM,9/26/96,0.897916671,0.51052313,0,2.2,48,0
VIAM,9/27/96,1.262499993,0.489735038,0.4,2.3,48,0
VIAM,9/28/96,1.285416674,0.539499219,0.2,2.4,48,0
VIAM,9/29/96,0.983333335,0.520365392,0.2,2.3,48,0
VIAM,9/30/96,0.881250003,0.438884588,0,1.7,48,0
VIAM,10/1/96,0.952083334,0.448159156,0.1,1.8,48,0
VIAM,10/2/96,1.452083317,0.539104673,0.5,2.5,48,0
VIAM,10/3/96,3.447916678,1.988048296,0.8,8.3,48,0
VIAM,10/4/96,5.69166664,2.40220054,1.9,10.2,48,0
VIAM,10/5/96,2.566666647,2.26568605,0.3,9.1,48,0
VIAM,10/6/96,1.581250002,0.652868062,0.5,3.5,48,0
VIAM,10/7/96,2.23749999,1.312399941,0.5,6.3,48,0
VIAM,10/8/96,1.168750007,0.545057577,0.3,2.6,48,0
VIAM,10/9/96,1.110416657,0.473663654,0.2,2.3,48,0
VIAM,10/10/96,1.968750011,1.763719031,0.2,7,48,0
VIAM,10/11/96,1.900000014,1.901399283,0.2,6.9,48,0
VIAM,10/12/96,1.335416664,1.384179529,0.2,5.3,48,0
VIAM,10/13/96,0.839583339,0.377415387,0.1,1.7,48,0
VIAM,10/14/96,0.731250005,0.369102563,0.1,1.4,48,0
VIAM,10/15/96,0.839583335,0.375720345,0.2,1.6,48,0
VIAM,10/16/96,0.922916671,0.446375274,0.1,1.8,48,0
VIAM,10/17/96,1.179166667,0.890364094,0.1,4,48,0
VIAM,10/18/96,0.87916667,0.499769447,0.2,1.9,48,0
VIAM,10/19/96,1.543749989,0.786834815,0.4,3.8,48,0
VIAM,10/20/96,2.902083325,2.460279305,0.2,6.9,48,0
VIAM,10/21/96,1.225531919,0.671619739,0.2,3.5,47,0
VIAM,10/22/96,2.022916685,1.685133974,0.1,5.9,48,0
VIAM,10/23/96,2.78958335,2.582530496,0.3,8.1,48,0
VIAM,10/24/96,1.516666671,1.072942532,0.3,4.4,48,0
VIAM,10/25/96,1.114583341,0.514467125,0.3,2.3,48,0
VIAM,10/26/96,2.422916661,1.975729252,0.5,10.4,48,0
VIAM,10/27/96,2.918749989,1.697890578,0.7,6.9,48,0
VIAM,10/28/96,4.631249995,2.956216378,0.8,10.4,48,0
VIAM,10/29/96,1.356250004,0.546908622,0.4,3.5,48,0
VIAM,10/30/96,3.087500009,2.396595558,0.4,7.4,48,0
VIAM,10/31/96,2.8416667,3.089297506,0.1,9.5,48,0
VIAM,11/1/96,2.970833322,2.015362093,0.4,7.2,48,0
VIAM,11/2/96,2.043749995,1.578567373,0.2,5.8,48,0
VIAM,11/3/96,2.733333339,2.126162603,0.3,7.8,48,0
VIAM,11/4/96,4.345833335,2.793758878,0.6,9.2,48,0
VIAM,11/5/96,3.193749989,1.812299142,0.8,10.2,48,0
VIAM,11/6/96,5.329166663,2.839610277,1,10.8,48,0
VIAM,11/7/96,4.589583318,3.639279768,0.4,10.3,48,0
VIAM,11/8/96,2.035416664,1.552827138,0.2,6.5,48,0
VIAM,11/9/96,3.340624994,2.527544697,0.3,8.1,64,0
VIAM,11/10/96,4.821875022,4.306841665,0.3,15.3,96,0
VIAM,11/11/96,5.439583326,3.448248365,0.5,12.1,96,0
VIAM,11/12/96,2.772916659,2.757324349,0.1,10.9,96,0
VIAM,11/13/96,2.695833337,1.819538217,0,8.3,96,0
VIAM,11/14/96,2.021874995,1.368764565,0.1,5,96,0
VIAM,11/15/96,3.46041667,2.623877382,0.1,7.5,96,0
VIAM,11/16/96,4.894791656,3.76186878,0.2,10.3,96,0
VIAM,11/17/96,3.6125,2.032693303,0.2,8.5,96,0
VIAM,11/18/96,2.889583335,1.990687758,0.2,9.1,96,0
VIAM,11/19/96,5.446874985,3.658010746,0.6,12.2,96,0
VIAM,11/20/96,6.276041689,2.675925639,1.1,10.4,96,0
VIAM,11/21/96,5.755208342,3.529361655,0.4,12,96,0
VIAM,11/22/96,4.999999986,2.624900999,0.3,10.1,96,0
VIAM,11/23/96,3.977083322,2.297892818,0.6,7.3,96,0
VIAM,11/24/96,4.899999973,1.885512627,0.8,7.6,96,0
VIAM,11/25/96,5.223958315,3.281069915,0.5,10.7,96,0
VIAM,11/26/96,3.533333336,1.788952462,0.3,8,96,0
VIAM,11/27/96,4.965625005,2.914097411,0.4,10.9,96,0
VIAM,11/28/96,6.684374994,2.980191717,1.2,11.5,96,0
VIAM,11/29/96,7.471875004,2.925773077,2.1,11.7,96,0
VIAM,11/30/96,5.44479169,1.825253841,1.1,8.1,96,0
VIAM,12/1/96,4.252083338,2.791301494,0.3,10.3,96,0
VIAM,12/2/96,4.706250018,2.778595357,0.2,9.4,96,0
VIAM,12/3/96,6.620833357,2.462258993,0.9,11,96,0
VIAM,12/4/96,4.693750014,2.819399445,0.5,9.3,96,0
VIAM,12/5/96,3.906250006,1.938193009,0.7,7.1,96,0
VIAM,12/6/96,3.559374998,1.919954946,0.4,7,96,0
VIAM,12/7/96,6.004166658,1.945300273,1.8,10,96,0
VIAM,12/8/96,6.178124977,3.455071094,1,10.6,96,0
VIAM,12/9/96,6.762500008,2.291597935,1.8,11,96,0
VIAM,12/10/96,5.730208317,2.832633853,0.5,9.7,96,0
VIAM,12/11/96,5.864583358,2.027234539,2.4,8.6,96,0
VIAM,12/12/96,5.734374983,1.407261479,2.8,7.8,96,0
VIAM,12/13/96,4.907291657,2.202546129,0.4,8,96,0
VIAM,12/14/96,3.758333344,1.604183133,1.2,7,96,0
VIAM,12/15/96,4.533333337,2.289733015,0.6,9,96,0
VIAM,12/16/96,6.14062499,2.290969821,2,9.3,96,0
VIAM,12/17/96,8.017708391,0.837162479,6.1,9.6,96,0
VIAM,12/18/96,4.601041678,1.82817106,0.2,7.8,96,0
VIAM,12/19/96,4.169791641,2.439979269,0.6,9.9,96,0
VIAM,12/20/96,3.69479167,1.964654515,0.5,8.5,96,0
VIAM,12/21/96,5.952083346,2.301897583,0.9,10.2,96,0
VIAM,12/22/96,5.954166651,1.597756111,2.4,9.4,96,0
VIAM,12/23/96,3.93125,1.998278881,0.6,8.3,96,0
VIAM,12/24/96,4.402083357,2.308518787,1,8.6,96,0
VIAM,12/25/96,6.262500023,2.609143852,2.2,9.8,96,0
VIAM,12/26/96,4.927083332,1.891169463,0.4,8,96,0
VIAM,12/27/96,4.534374987,2.332102203,0.6,9.9,96,0
VIAM,12/28/96,7.465625038,2.70118213,1.7,10.8,96,0
VIAM,12/29/96,4.528124992,2.198932899,0.9,8.4,96,0
VIAM,12/30/96,4.60937499,1.158954009,1.8,7.9,96,0
VIAM,12/31/96,4.094791677,1.623665113,1,7.5,96,0
VIAM,1/1/97,4.630208338,1.480691148,2.2,7.3,96,0
VIAM,1/2/97,4.111458345,2.45532161,0.3,10,96,0
VIAM,1/3/97,4.966666664,1.989904349,2.1,8.6,96,0
VIAM,1/4/97,3.905208344,1.67302877,1.2,7.8,96,0
VIAM,1/5/97,6.863541685,2.341664734,0.9,11,96,0
VIAM,1/6/97,7.753125002,2.568716785,2.4,10.9,96,0
VIAM,1/7/97,7.920833314,2.297775407,4.3,11.3,96,0
VIAM,1/8/97,8.216666654,1.618294525,5,10.8,96,0
VIAM,1/9/97,5.867708333,1.83311612,2.2,9.9,96,0
VIAM,1/10/97,3.952083337,1.647900052,0.6,7.3,96,0
VIAM,1/11/97,6.144791663,3.241405483,0.9,10.7,96,0
VIAM,1/12/97,7.253124992,1.933578801,3.1,9.8,96,0
VIAM,1/13/97,4.065625,2.247376392,0.4,7.3,96,0
VIAM,1/14/97,3.923958328,1.421396251,1.4,7.6,96,0
VIAM,1/15/97,4.380208326,2.154535966,1,9.3,96,0
VIAM,1/16/97,5.283333319,3.006227438,1,10.1,96,0
VIAM,1/17/97,6.89999998,2.391211969,1,11.1,96,0
VIAM,1/18/97,6.186458321,1.941113069,1.3,8.6,96,0
VIAM,1/19/97,5.329166661,1.903786633,1.1,8,96,0
VIAM,1/20/97,4.154166667,1.680533554,1.4,8.5,96,0
VIAM,1/21/97,6.849999991,2.992939053,0.8,11.6,96,0
VIAM,1/22/97,4.334374996,2.793972026,0,8.8,96,0
VIAM,1/23/97,5.348958353,2.811704669,0.9,9.3,96,0
VIAM,1/24/97,4.719791681,1.926087952,1.4,7.8,96,0
VIAM,1/25/97,4.13645836,2.109732845,1.1,8.6,96,0
VIAM,1/26/97,5.847916659,1.927746362,1.2,9.7,96,0
VIAM,1/27/97,4.269791663,2.030562258,0.6,7.7,96,0
VIAM,1/28/97,3.201041654,1.734631437,0.3,6.3,96,0
VIAM,1/29/97,4.606250012,2.432058398,0.6,9.7,96,0
VIAM,1/30/97,5.018750009,2.319769154,1.1,10.7,96,0
VIAM,1/31/97,5.490624975,3.080228198,0.3,10,96,0
VIAM,2/1/97,5.104166685,3.178908022,0.3,9.7,96,0
VIAM,2/2/97,4.750000006,3.266158219,0.1,9.3,96,0
VIAM,2/3/97,4.466666678,3.118726704,0.2,9.2,96,0
VIAM,2/4/97,3.745833312,1.591286562,1,7,96,0
VIAM,2/5/97,4.364583346,1.905006105,0.8,7.9,96,0
VIAM,2/6/97,4.708333366,3.148221457,0.2,9.7,96,0
VIAM,2/7/97,4.503125016,3.116051939,0.5,9.8,96,0
VIAM,2/8/97,4.24895835,3.131940555,0.4,8.8,96,0
VIAM,2/9/97,3.145833341,1.889913226,0.2,7.1,96,0
VIAM,2/10/97,4.645833317,3.569606082,0.2,10,96,0
VIAM,2/11/97,3.738541643,1.526838453,0.6,7.2,96,0
VIAM,2/12/97,4.272916673,2.162575449,0.6,8.5,96,0
VIAM,2/13/97,2.673958328,1.554297587,0.3,5.8,96,0
VIAM,2/14/97,2.578125011,1.379946864,0.2,6.6,96,0
VIAM,2/15/97,3.86979165,3.194176255,0.1,9.5,96,0
VIAM,2/16/97,3.782291679,3.602484377,0.2,10.2,96,0
VIAM,2/17/97,4.15937503,3.529412632,0.1,10.3,96,0
VIAM,2/18/97,2.137500001,1.702274017,0.1,6.7,96,0
VIAM,2/19/97,3.439583332,1.940291865,0.4,8.6,96,0
VIAM,2/20/97,1.879166665,1.395701419,0.1,5.8,96,0
VIAM,2/21/97,3.285416662,1.743135641,0.5,8.4,96,0
VIAM,2/22/97,3.767708343,3.461350377,0.2,9.8,96,0
VIAM,2/23/97,2.043750002,1.407035898,0.1,5.9,96,0
VIAM,2/24/97,2.721875007,2.80762884,0.3,8.9,96,0
VIAM,2/25/97,2.380208327,1.802665836,0.3,6.2,96,0
VIAM,2/26/97,2.149999998,1.67809416,0.1,7.1,96,0
VIAM,2/27/97,1.548958335,1.073312124,0,4.4,96,0
VIAM,2/28/97,2.801041654,2.183068559,0.2,8,96,0
VIAM,3/1/97,2.145833336,2.15908933,0.1,8.6,96,0
VIAM,3/2/97,1.956250007,1.424951529,0,6.8,96,0
VIAM,3/3/97,1.492708335,0.858792898,0.2,4.8,96,0
VIAM,3/4/97,2.072916665,1.573496206,0.6,6.1,96,0
VIAM,3/5/97,1.788541674,1.609829663,0.1,6,96,0
VIAM,3/6/97,2.121875001,1.971438338,0.1,8.1,96,0
VIAM,3/7/97,0.944791669,0.485553349,0.2,2.1,96,0
VIAM,3/8/97,1.362499998,1.193248544,0.1,6,96,0
VIAM,3/9/97,1.385416666,1.266323231,0.1,5.6,96,0